Find Starlink 32398

NORAD ID: 61624 Int'l Des: 2024-191 Owner: SPXS Country: US Constellation: starlink operational
LEOCIRCULAR

Current View

Loading 3D Globe...

About Starlink 32398

Starlink 32398 (NORAD 61624) is a starlink constellation satellite (v2 mini) launched Oct 23, 2024 by SPXS of US. It operates in LEO, CIRCULAR orbit with a mass of 730.00 kg.

Upcoming Passes

Passes for default location (London). Set your location on the main map for personalized predictions.

Altitude History

Loading altitude history...

Two-Line Element Set

1 61624U 24191D 26263.98301609 .00000343 00000-0 21994-4 0 9990
2 61624 43.0015 131.6175 0001277 265.5522 94.5184 15.27580732107405
Epoch: Sep 20, 2026 • Age: 15 hours

Current Status

Altitude 495.5 km
Apogee / Perigee N/A
Velocity 7.62 km/s
Sub-Earth Point -43.10°S, 177.52°E
Launch Date Oct 23, 2024
Age 1.9 years
Type internet

Technical Details

Classification Payload
Mass 730.00 kg
Dry Mass 700.00 kg
Length 0.30 m
Span 29.00 m
Shape ? Box + pan
Manufacturer SPXS
Bus Type Starlink V2M
Phase Status In Orbit
Owner/State SPXS/US

Most Searched